GW5168 Weather Reports


time (UTC)temp
C
wind
direction
speed
KPH
gust
KPH
rain 1hr
cm
rain 24hr
cm
rain mn
cm
humidity
%
barometer
mb
20260506193055 15 181 1.6 16.1 0.08 0.66 0.66 90 1006.8
20260506192555 15 0 3.2 16.1 0.08 0.66 0.66 90 1006.9
20260506192056 15 236 3.2 12.9 0.08 0.66 0.66 90 1007.1
20260506191558 15 0 0.0 11.3 0.08 0.66 0.66 90 1007.0
20260506191056 15 0 3.2 12.9 0.08 0.64 0.64 90 1007.1
20260506190557 15 0 1.6 12.9 0.10 0.64 0.64 90 1007.3
20260506190057 15 252 0.0 11.3 0.13 0.64 0.64 90 1007.2
20260506185556 15 0 1.6 11.3 0.15 0.64 0.64 90 1007.3
20260506185056 15 256 0.0 16.1 0.15 0.64 0.64 90 1007.3
20260506184607 15 227 3.2 17.7 0.18 0.64 0.64 92 1007.2
20260506184056 15 274 3.2 17.7 0.18 0.61 0.61 89 1007.3
20260506183557 15 173 1.6 14.5 0.18 0.61 0.61 89 1007.2
20260506183056 15 248 3.2 16.1 0.15 0.58 0.58 89 1007.3
20260506182555 15 157 3.2 16.1 0.15 0.58 0.58 89 1007.3
20260506182055 15 78 1.6 16.1 0.15 0.58 0.58 89 1007.3
20260506181557 15 0 1.6 16.1 0.15 0.58 0.58 89 1007.3
20260506181056 15 0 4.8 22.5 0.13 0.56 0.56 89 1007.4
20260506180557 15 0 4.8 22.5 0.10 0.53 0.53 89 1007.3
20260506175559 15 181 3.2 16.1 0.05 0.48 0.48 88 1007.4
20260506175056 15 0 3.2 14.5 0.08 0.48 0.48 88 1007.4
20260506174556 15 0 0.0 22.5 0.05 0.46 0.46 88 1007.6
20260506174056 15 0 3.2 22.5 0.05 0.43 0.43 88 1007.6
20260506173556 15 184 3.2 16.1 0.05 0.43 0.43 88 1007.6
20260506173108 15 209 0.0 16.1 0.08 0.43 0.43 88 1007.6
20260506172556 15 0 3.2 16.1 0.08 0.43 0.43 88 1007.6
20260506172056 15 259 1.6 16.1 0.08 0.43 0.43 88 1007.6
20260506171600 15 203 4.8 22.5 0.10 0.43 0.43 88 1007.7
20260506171057 15 195 4.8 22.5 0.13 0.43 0.43 88 1007.7
20260506170556 15 0 1.6 25.7 0.15 0.43 0.43 88 1007.7
20260506165556 15 181 4.8 19.3 0.20 0.43 0.43 88 1007.8
20260506165056 15 0 3.2 17.7 0.20 0.41 0.41 88 1007.6
20260506164612 15 240 1.6 17.7 0.23 0.41 0.41 88 1007.5
20260506164056 15 0 0.0 14.5 0.20 0.38 0.38 88 1007.6
20260506163556 15 117 1.6 14.5 0.23 0.38 0.38 87 1007.6
20260506163102 15 182 3.2 11.3 0.20 0.36 0.36 88 1007.6
20260506162556 16 155 1.6 32.2 0.23 0.36 0.36 88 1007.9
20260506162056 15 0 1.6 35.4 0.23 0.36 0.36 88 1008.0
20260506161559 15 132 6.4 35.4 0.20 0.33 0.33 87 1008.2
20260506161056 15 0 3.2 12.9 0.20 0.30 0.30 87 1008.5
20260506160556 15 257 0.0 9.7 0.20 0.28 0.28 87 1008.7
20260506160107 15 192 1.6 9.7 0.18 0.25 0.25 87 1008.8
20260506155556 15 0 1.6 8.0 0.15 0.23 0.23 86 1008.8
20260506155056 16 0 0.0 12.9 0.15 0.20 0.20 86 1008.9
20260506154557 16 0 1.6 12.9 0.15 0.18 0.18 85 1009.1
20260506154056 16 0 3.2 16.1 0.18 0.18 0.18 85 1009.2
20260506153556 16 213 0.0 16.1 0.15 0.15 0.15 84 1009.2
20260506153101 16 136 3.2 16.1 0.15 0.15 0.15 84 1009.1
20260506152555 16 156 4.8 16.1 0.13 0.13 0.13 84 1009.0
20260506152056 16 0 1.6 11.3 0.13 0.13 0.13 84 1008.9
20260506151558 16 0 1.6 11.3 0.13 0.13 0.13 83 1008.9
20260506151056 16 0 0.0 11.3 0.10 0.10 0.10 83 1008.7
20260506150556 16 0 0.0 11.3 0.08 0.08 0.08 82 1008.8
20260506150055 16 0 0.0 16.1 0.08 0.08 0.08 81 1008.9
20260506145558 17 0 3.2 16.1 0.08 0.08 0.08 80 1008.9
20260506145056 17 0 0.0 19.3 0.05 0.05 0.05 79 1009.0
20260506144556 17 192 1.6 19.3 0.03 0.03 0.03 76 1009.1
20260506144056 17 0 3.2 8.0 0.00 0.00 0.00 73 1009.1
20260506143556 18 197 0.0 14.5 0.00 0.00 0.00 73 1009.1
20260506143058 18 0 4.8 16.1 0.00 0.00 0.00 71 1008.9
20260506142556 18 0 3.2 16.1 0.00 0.00 0.00 72 1008.9
20260506142055 18 0 1.6 12.9 0.00 0.00 0.00 72 1008.9
20260506141611 18 0 1.6 16.1 0.00 0.00 0.00 72 1009.0
20260506141057 18 245 1.6 16.1 0.00 0.00 0.00 72 1008.9
20260506140558 18 219 3.2 16.1 0.00 0.00 0.00 72 1008.7
20260506140057 17 231 3.2 11.3 0.00 0.00 0.00 73 1008.6
20260506135556 17 0 1.6 14.5 0.00 0.00 0.00 72 1008.6
20260506135056 17 120 1.6 14.5 0.00 0.00 0.00 72 1008.7
20260506134557 17 119 6.4 14.5 0.00 0.00 0.00 71 1008.8
20260506134056 17 203 1.6 16.1 0.00 0.00 0.00 72 1008.8
20260506133559 18 180 3.2 16.1 0.00 0.00 0.00 71 1008.8
20260506133105 17 215 1.6 16.1 0.00 0.00 0.00 72 1009.0
20260506132556 17 0 1.6 22.5 0.00 0.00 0.00 72 1009.0
20260506132056 18 180 4.8 22.5 0.00 0.00 0.00 71 1009.2
20260506131556 18 186 3.2 22.5 0.00 0.00 0.00 70 1009.1
20260506131057 18 187 4.8 22.5 0.00 0.00 0.00 70 1009.2
20260506130556 18 0 4.8 25.7 0.00 0.00 0.00 70 1009.2
20260506130057 18 130 1.6 25.7 0.00 0.00 0.00 70 1009.0
20260506125556 18 0 3.2 24.1 0.00 0.00 0.00 70 1009.1
20260506125056 17 0 8.0 22.5 0.00 0.00 0.00 72 1009.1
20260506124555 17 0 1.6 19.3 0.00 0.00 0.00 72 1009.1
20260506124056 17 185 3.2 20.9 0.00 0.00 0.00 72 1009.0
20260506123556 17 179 3.2 20.9 0.00 0.00 0.00 72 1008.6
20260506123056 17 163 4.8 16.1 0.00 0.00 0.00 71 1008.8
20260506122556 17 0 4.8 16.1 0.00 0.00 0.00 72 1008.8
20260506122057 17 172 3.2 16.1 0.00 0.00 0.00 72 1008.9
20260506121610 17 0 4.8 16.1 0.00 0.00 0.00 72 1008.9
20260506121056 17 188 4.8 22.5 0.00 0.00 0.00 73 1009.0
20260506120556 17 0 4.8 22.5 0.00 0.00 0.00 72 1009.1
20260506120118 17 0 3.2 19.3 0.00 0.00 0.00 73 1009.1
20260506115556 17 0 1.6 19.3 0.00 0.00 0.00 73 1008.9
20260506115056 17 270 6.4 19.3 0.00 0.00 0.00 73 1009.0
20260506114555 17 166 3.2 14.5 0.00 0.00 0.00 73 1009.0
20260506114055 17 0 3.2 20.9 0.00 0.00 0.00 73 1009.1
20260506113556 17 221 3.2 20.9 0.00 0.00 0.00 73 1009.2
20260506113103 17 230 0.0 17.7 0.00 0.00 0.00 74 1009.2
20260506112557 17 0 1.6 22.5 0.00 0.00 0.00 73 1009.1
20260506112056 17 268 3.2 22.5 0.00 0.00 0.00 73 1009.0
20260506111555 17 188 8.0 22.5 0.00 0.00 0.00 73 1009.0
20260506111056 17 206 1.6 16.1 0.00 0.00 0.00 74 1008.9
20260506110558 17 263 1.6 22.5 0.00 0.00 0.00 74 1008.9
20260506110101 17 213 6.4 24.1 0.00 0.00 0.00 74 1008.9
20260506105556 17 172 3.2 24.1 0.00 0.00 0.00 75 1008.9
20260506105056 17 177 1.6 9.7 0.00 0.00 0.00 74 1008.7
20260506104556 17 0 0.0 17.7 0.00 0.00 0.00 74 1008.7
20260506104055 17 0 4.8 19.3 0.00 0.00 0.00 74 1008.9
20260506103556 17 0 4.8 19.3 0.00 0.00 0.00 74 1008.6
20260506103057 17 221 0.0 11.3 0.00 0.00 0.00 75 1008.5
20260506102557 17 183 1.6 17.7 0.00 0.00 0.00 75 1008.6
20260506102057 17 0 3.2 17.7 0.00 0.00 0.00 75 1008.6
20260506101558 16 165 1.6 14.5 0.00 0.00 0.00 75 1008.6
20260506101056 16 0 1.6 14.5 0.00 0.00 0.00 75 1008.7
20260506100558 16 214 0.0 6.4 0.00 0.00 0.00 75 1008.7
20260506100057 17 0 1.6 9.7 0.00 0.00 0.00 75 1008.6
20260506095556 17 219 0.0 11.3 0.00 0.00 0.00 74 1008.5
20260506095055 17 0 1.6 11.3 0.00 0.00 0.00 74 1008.6
20260506094557 17 152 1.6 9.7 0.00 0.00 0.00 74 1008.5
20260506094057 17 0 0.0 22.5 0.00 0.00 0.00 74 1008.6
20260506093556 17 0 4.8 22.5 0.00 0.00 0.00 74 1008.3
20260506093057 17 0 1.6 12.9 0.00 0.00 0.00 74 1008.4
20260506092556 17 0 4.8 16.1 0.00 0.00 0.00 74 1008.2
20260506092056 17 0 0.0 17.7 0.00 0.00 0.00 74 1008.3
20260506091558 17 0 4.8 17.7 0.00 0.00 0.00 74 1008.3
20260506091056 17 212 3.2 12.9 0.00 0.00 0.00 74 1008.5
20260506090556 17 0 1.6 11.3 0.00 0.00 0.00 74 1008.5
20260506090059 17 237 1.6 12.9 0.00 0.00 0.00 74 1008.6
20260506085556 17 0 1.6 12.9 0.00 0.00 0.00 75 1008.7
20260506085056 16 0 1.6 11.3 0.00 0.00 0.00 75 1008.8
20260506084556 16 0 1.6 12.9 0.00 0.00 0.00 75 1008.9
20260506084056 16 0 1.6 12.9 0.00 0.00 0.00 75 1008.8
20260506083556 16 0 0.0 11.3 0.00 0.00 0.00 74 1008.9
20260506083057 16 0 1.6 11.3 0.00 0.00 0.00 74 1008.9
20260506082556 16 0 0.0 12.9 0.00 0.00 0.00 74 1008.8
20260506082056 17 0 1.6 12.9 0.00 0.00 0.00 74 1008.7
20260506081556 16 0 1.6 12.9 0.00 0.00 0.00 74 1008.7
20260506081056 16 0 1.6 8.0 0.00 0.00 0.00 73 1008.8
20260506080556 17 214 0.0 16.1 0.00 0.00 0.00 73 1008.8
20260506073102 17 0 1.6 19.3 0.00 0.00 0.00 69 1008.9
20260506072557 17 188 0.0 8.0 0.00 0.00 0.00 69 1009.0
20260506072057 17 0 1.6 9.7 0.00 0.00 0.00 68 1008.9
20260506071602 17 0 0.0 14.5 0.00 0.00 0.00 67 1008.8
20260506071057 17 0 0.0 16.1 0.00 0.00 0.00 67 1008.9
20260506070556 17 192 3.2 16.1 0.00 0.00 0.00 66 1008.8
20260506070116 18 0 0.0 16.1 0.00 0.00 0.00 66 1008.9
20260506062100 18 0 3.2 20.9 0.00 0.00 0.00 63 1009.2
20260506061602 18 245 3.2 20.9 0.00 0.00 0.00 63 1009.2
20260506061057 18 0 3.2 19.3 0.00 0.00 0.00 62 1009.3
20260506060557 18 101 1.6 14.5 0.00 0.00 0.00 62 1009.2
20260506051056 18 0 1.6 17.7 0.00 0.00 0.00 61 1009.7
20260506050556 18 0 3.2 17.7 0.00 0.00 0.00 61 1009.6
20260506050112 18 155 0.0 14.5 0.00 0.00 0.00 61 1009.8
20260506045057 18 122 0.0 12.9 0.00 0.00 0.00 61 1009.8
20260506044602 18 237 1.6 12.9 0.00 0.00 0.00 61 1009.9
20260506044057 18 0 0.0 9.7 0.00 0.00 0.00 61 1009.9
20260506043558 18 0 1.6 12.9 0.00 0.00 0.00 61 1009.9
20260506043059 18 0 0.0 12.9 0.00 0.00 0.00 61 1009.8
20260506042556 18 0 4.8 12.9 0.00 0.00 0.00 61 1009.8
20260506042057 18 111 0.0 16.1 0.00 0.00 0.00 60 1009.8
20260506041557 18 194 3.2 16.1 0.00 0.00 0.00 61 1009.9
20260506041055 18 0 0.0 11.3 0.00 0.00 0.00 60 1009.9
20260506040556 18 146 1.6 11.3 0.00 0.00 0.00 60 1009.9
20260506040100 18 0 1.6 12.9 0.00 0.00 0.00 60 1009.9
20260506035556 18 0 0.0 12.9 0.00 0.00 0.00 60 1009.9
20260506035056 18 0 1.6 12.9 0.00 0.00 0.00 60 1009.9
20260506034559 18 147 0.0 11.3 0.00 0.00 0.00 59 1010.0
20260506034057 19 0 0.0 14.5 0.00 0.00 0.00 59 1009.9
20260506033558 19 159 3.2 14.5 0.00 0.00 0.00 58 1009.8
20260506033055 19 165 1.6 14.5 0.00 0.00 0.00 58 1009.8
20260506032558 19 191 1.6 14.5 0.00 0.00 0.00 58 1009.8
20260506032056 19 0 0.0 11.3 0.00 0.00 0.00 58 1009.7
20260506031602 19 0 1.6 19.3 0.00 0.00 0.00 57 1009.7
20260506031056 19 130 0.0 19.3 0.00 0.00 0.00 56 1009.6
20260506030556 20 138 0.0 12.9 0.00 0.00 0.00 55 1009.7
20260506030113 20 5 3.2 14.5 0.00 0.00 0.00 54 1009.7
20260506025556 20 0 1.6 14.5 0.00 0.00 0.00 54 1009.8
20260506025056 20 0 1.6 12.9 0.00 0.00 0.00 53 1009.8
20260506024559 20 130 0.0 14.5 0.00 0.00 0.00 51 1009.8
20260506024056 20 0 0.0 17.7 0.00 0.00 0.00 50 1009.8
20260506023555 20 0 1.6 17.7 0.00 0.00 0.00 49 1009.8
20260506023059 20 139 3.2 16.1 0.00 0.00 0.00 49 1009.7
20260506022558 21 0 0.0 14.5 0.00 0.00 0.00 48 1009.7
20260506022056 21 178 3.2 14.5 0.00 0.00 0.00 48 1009.7
20260506021607 21 199 1.6 12.9 0.00 0.00 0.00 47 1009.6
20260506021056 21 0 0.0 12.9 0.00 0.00 0.00 47 1009.7
20260506020556 21 0 3.2 12.9 0.00 0.00 0.00 46 1009.6
20260506020100 21 0 1.6 12.9 0.00 0.00 0.00 46 1009.7
20260506015556 21 0 0.0 20.9 0.00 0.00 0.00 45 1009.6
20260506015058 21 0 3.2 20.9 0.00 0.00 0.00 45 1009.6
20260506014602 21 156 1.6 17.7 0.00 0.00 0.00 45 1009.6
20260506014056 22 0 1.6 19.3 0.00 0.00 0.00 45 1009.5
20260506013600 22 0 6.4 19.3 0.00 0.00 0.00 44 1009.4
20260506013058 22 0 6.4 17.7 0.00 0.00 0.00 45 1009.4
20260506012556 21 0 1.6 17.7 0.00 0.00 0.00 45 1009.4
20260506012057 21 187 1.6 17.7 0.00 0.00 0.00 46 1009.3
20260506011558 21 114 1.6 12.9 0.00 0.00 0.00 47 1009.3
20260506011056 21 0 1.6 16.1 0.00 0.00 0.00 46 1009.2
20260506010557 22 0 3.2 16.1 0.00 0.00 0.00 46 1009.1
20260506010100 22 145 1.6 12.9 0.00 0.00 0.00 45 1009.0
20260506005557 22 0 0.0 16.1 0.00 0.00 0.00 46 1009.0
20260506005056 22 0 1.6 16.1 0.00 0.00 0.00 45 1008.9
20260506004626 22 139 0.0 14.5 0.00 0.00 0.00 45 1008.8
20260506004055 22 198 1.6 20.9 0.00 0.00 0.00 44 1008.8
20260506003556 22 162 3.2 20.9 0.00 0.00 0.00 43 1008.7
20260506003057 22 0 3.2 14.5 0.00 0.00 0.00 43 1008.6
20260506002556 22 0 3.2 14.5 0.00 0.00 0.00 41 1008.7
20260506002059 22 244 1.6 17.7 0.00 0.00 0.00 40 1008.6
20260506001600 22 0 0.0 17.7 0.00 0.00 0.00 40 1008.6
20260506001055 23 0 4.8 17.7 0.00 0.00 0.00 40 1008.5
20260506000556 23 0 0.0 14.5 0.00 0.00 0.00 40 1008.6
20260506000057 23 183 1.6 14.5 0.00 0.00 0.00 38 1008.5
20260505235558 23 0 0.0 24.1 0.00 0.00 0.00 38 1008.5
20260505235056 23 0 3.2 24.1 0.00 0.00 0.00 38 1008.5
20260505234615 23 0 1.6 17.7 0.00 0.00 0.00 38 1008.4
20260505234056 23 0 3.2 16.1 0.00 0.00 0.00 38 1008.4
20260505233556 23 146 0.0 17.7 0.00 0.00 0.00 38 1008.3
20260505233056 23 0 3.2 17.7 0.00 0.00 0.00 37 1008.3
20260505232556 23 175 4.8 17.7 0.00 0.00 0.00 37 1008.3
20260505232056 24 128 3.2 19.3 0.00 0.00 0.00 37 1008.3
20260505231558 24 0 4.8 24.1 0.00 0.00 0.00 36 1008.3
20260505231056 24 215 6.4 24.1 0.00 0.00 0.00 35 1008.2
20260505230556 25 122 1.6 22.5 0.00 0.00 0.00 36 1008.2
20260505230058 25 263 1.6 27.4 0.00 0.00 0.00 36 1008.1
20260505225556 25 171 6.4 27.4 0.00 0.00 0.00 35 1008.1
20260505225056 25 253 1.6 22.5 0.00 0.00 0.00 35 1008.2
20260505224559 25 200 6.4 22.5 0.00 0.00 0.00 34 1008.1
20260505224056 25 170 0.0 17.7 0.00 0.00 0.00 34 1008.0
20260505223555 25 0 3.2 24.1 0.00 0.00 0.00 36 1007.9
20260505223105 25 184 3.2 29.0 0.00 0.00 0.00 34 1007.8
20260505222556 25 233 4.8 29.0 0.00 0.00 0.00 33 1007.8
20260505222057 25 176 4.8 17.7 0.00 0.00 0.00 33 1007.8
20260505221608 25 155 6.4 19.3 0.00 0.00 0.00 33 1008.0
20260505221056 26 0 3.2 20.9 0.00 0.00 0.00 32 1008.0
20260505220600 26 198 3.2 25.7 0.00 0.00 0.00 33 1008.0
20260505220138 26 270 6.4 29.0 0.00 0.00 0.00 33 1007.9
20260505215557 26 149 9.7 29.0 0.00 0.00 0.00 34 1007.9
20260505215056 26 164 9.7 30.6 0.00 0.00 0.00 32 1007.9
20260505214616 26 0 8.0 33.8 0.00 0.00 0.00 32 1007.9
20260505214055 26 217 8.0 33.8 0.00 0.00 0.00 33 1007.9
20260505213558 26 187 6.4 33.8 0.00 0.00 0.00 33 1007.9
20260505213056 25 168 3.2 22.5 0.00 0.00 0.00 33 1007.8
20260505212558 25 223 8.0 24.1 0.00 0.00 0.00 33 1007.8
20260505212056 25 148 11.3 24.1 0.00 0.00 0.00 33 1007.7
20260505211613 25 246 6.4 27.4 0.00 0.00 0.00 33 1007.6
20260505211056 25 240 6.4 27.4 0.00 0.00 0.00 32 1007.5
20260505210557 26 223 6.4 27.4 0.00 0.00 0.00 32 1007.6
20260505210058 26 194 4.8 27.4 0.00 0.00 0.00 31 1007.4
20260505205557 27 142 8.0 27.4 0.00 0.00 0.00 30 1007.3
20260505205057 27 117 6.4 27.4 0.00 0.00 0.00 30 1007.4
20260505204558 27 234 4.8 33.8 0.00 0.00 0.00 31 1007.5
20260505204056 26 163 12.9 33.8 0.00 0.00 0.00 31 1007.5
20260505203556 26 168 14.5 30.6 0.00 0.00 0.00 30 1007.6
20260505203059 26 192 9.7 30.6 0.00 0.00 0.00 29 1007.6
20260505202556 26 210 9.7 25.7 0.00 0.00 0.00 29 1007.7
20260505202100 27 240 12.9 25.7 0.00 0.00 0.00 29 1007.5
20260505201607 27 194 12.9 24.1 0.00 0.00 0.00 28 1007.7
20260505201056 27 292 3.2 30.6 0.00 0.00 0.00 30 1007.5
20260505200557 27 167 11.3 37.0 0.00 0.00 0.00 32 1007.7
20260505200105 27 321 9.7 37.0 0.00 0.00 0.00 30 1007.6
20260505195555 27 279 8.0 37.0 0.00 0.00 0.00 29 1007.6
20260505195056 27 279 8.0 32.2 0.00 0.00 0.00 31 1007.7
20260505194606 27 225 11.3 32.2 0.00 0.00 0.00 33 1007.6
20260505194057 27 158 9.7 46.7 0.00 0.00 0.00 31 1007.7
20260505193557 27 274 16.1 46.7 0.00 0.00 0.00 30 1007.6